Weather History for Henderson, KY

Change the Weather History Date:

Thursday, September 26, 2013

  Actual Average Record
Temperature  
Mean Temperature 68 °F -  
Max Temperature 82 °F 77 °F 93 °F (1998)
Min Temperature 55 °F 54 °F 33 °F (2001)
Cooling Degree Days 4    
Growing Degree Days 18 (Base 50)    
Moisture  
Dew Point 57 °F    
Average Humidity 74    
Maximum Humidity 100    
Minimum Humidity 37    
Precipitation  
Precipitation 0.00 in - - ()
Sea Level Pressure  
Sea Level Pressure 29.98 in    
Wind  
Wind Speed 2 mph (ENE)    
Max Wind Speed 9 mph    
Max Gust Speed -    
Visibility 7 miles    
Events      
Averages and records for this station are not official NWS values.
T = Trace of Precipitation, MM = Missing Value Source: NWS Daily Summary

Daily Weather History Graph

Daily Weather History Graph

Search for Another Location

Airport:

Trip Planner

Search our weather history database for the weather conditions in past years. The results will help you decide how hot, cold, wet, or windy it might be!

Date:

Astronomy

Sep. 26, 2013 Rise Set
Actual Time 6:42 AM CDT 6:41 PM CDT
Civil Twilight 6:16 AM CDT 7:07 PM CDT
Nautical Twilight 5:45 AM CDT 7:37 PM CDT
Astronomical Twilight 5:14 AM CDT 8:08 PM CDT
Moon 11:44 PM CDT (9/26) 1:28 PM CDT (9/26)
Length of Visible Light 12h 51m
Length of Day
11h 58m
Waning Gibbous, 54% of the Moon is Illuminated
Sep 26
Waning Gibbous
Sep 26
Last Quarter
Oct 4
New
Oct 11
First Quarter
Oct 18
Full

Hourly Weather History & Observations

Time (CDT) Temp. Heat Index Dew Point Humidity Pressure Visibility Wind Dir Wind Speed Gust Speed Precip Events Conditions
12:15 AM 60.8 °F - 57.2 °F 88% 29.89 in 3.0 mi Calm Calm - N/A   Clear
12:35 AM 60.8 °F - 57.2 °F 88% 29.89 in 1.5 mi Calm Calm - N/A   Clear
12:55 AM 59.0 °F - 55.4 °F 88% 29.89 in 4.0 mi Calm Calm - N/A   Clear
1:15 AM 57.2 °F - 55.4 °F 94% 29.89 in 2.0 mi Calm Calm - N/A   Clear
1:35 AM 57.2 °F - 55.4 °F 94% 29.89 in 0.8 mi Calm Calm - N/A   Unknown
1:55 AM 57.2 °F - 55.4 °F 94% 29.90 in 5.0 mi East 3.5 mph - N/A   Clear
2:15 AM 60.8 °F - 57.2 °F 88% 29.90 in 4.0 mi East 4.6 mph - N/A   Clear
2:35 AM 62.6 °F - 60.8 °F 94% 29.90 in 4.0 mi East 3.5 mph - N/A   Clear
2:55 AM 60.8 °F - 59.0 °F 94% 29.90 in 2.5 mi Calm Calm - N/A   Clear
3:15 AM 59.0 °F - 57.2 °F 94% 29.90 in 0.8 mi Calm Calm - N/A   Unknown
3:35 AM 57.2 °F - 55.4 °F 94% 29.91 in 1.5 mi Calm Calm - N/A   Clear
3:55 AM 57.2 °F - 55.4 °F 94% 29.91 in 3.0 mi Calm Calm - N/A   Clear
4:15 AM 57.2 °F - 55.4 °F 94% 29.92 in 2.0 mi Calm Calm - N/A   Clear
4:35 AM 55.4 °F - 53.6 °F 94% 29.93 in 0.2 mi Calm Calm - N/A   Mostly Cloudy
4:55 AM 59.0 °F - 55.4 °F 88% 29.93 in 1.5 mi NE 3.5 mph - N/A   Clear
5:15 AM 57.2 °F - 57.2 °F 100% 29.94 in 0.5 mi Calm Calm - N/A   Unknown
5:35 AM 57.2 °F - 55.4 °F 94% 29.95 in 0.2 mi Calm Calm - N/A   Unknown
5:55 AM 59.0 °F - 57.2 °F 94% 29.95 in 2.5 mi NNE 4.6 mph - N/A   Clear
6:15 AM 57.2 °F - 55.4 °F 94% 29.96 in 0.8 mi Calm Calm - N/A   Unknown
6:35 AM 55.4 °F - 53.6 °F 94% 29.96 in 0.2 mi Calm Calm - N/A   Unknown
6:55 AM 55.4 °F - 53.6 °F 94% 29.97 in 0.2 mi Calm Calm - N/A   Unknown
7:15 AM 57.2 °F - 55.4 °F 94% 29.98 in 0.8 mi NE 3.5 mph - N/A   Unknown
7:35 AM 60.8 °F - 57.2 °F 88% 29.98 in 3.0 mi ENE 3.5 mph - N/A   Clear
7:55 AM 62.6 °F - 60.8 °F 94% 29.99 in 3.0 mi East 3.5 mph - N/A   Clear
8:15 AM 64.4 °F - 60.8 °F 88% 29.99 in 5.0 mi East 4.6 mph - N/A   Clear
8:35 AM 64.4 °F - 60.8 °F 88% 30.00 in 8.0 mi ESE 3.5 mph - N/A   Clear
8:55 AM 66.2 °F - 62.6 °F 88% 30.01 in 10.0 mi Calm Calm - N/A   Clear
9:15 AM 68.0 °F - 62.6 °F 83% 30.01 in 10.0 mi Calm Calm - N/A   Clear
9:35 AM 69.8 °F - 62.6 °F 78% 30.01 in 10.0 mi SE 3.5 mph - N/A   Clear
9:55 AM 71.6 °F - 62.6 °F 73% 30.01 in 10.0 mi ESE 3.5 mph - N/A   Clear
10:15 AM 73.4 °F - 64.4 °F 73% 30.01 in 10.0 mi Calm Calm - N/A   Clear
10:35 AM 73.4 °F - 62.6 °F 69% 30.01 in 10.0 mi NE 4.6 mph - N/A   Clear
10:55 AM 75.2 °F - 64.4 °F 69% 30.01 in 10.0 mi NE 3.5 mph - N/A   Clear
11:15 AM 75.2 °F - 62.6 °F 65% 30.01 in 10.0 mi NE 4.6 mph - N/A   Clear
11:35 AM 75.2 °F - 60.8 °F 61% 30.01 in 10.0 mi ENE 5.8 mph - N/A   Clear
11:55 AM 75.2 °F - 60.8 °F 61% 30.01 in 10.0 mi ENE 5.8 mph - N/A   Partly Cloudy
12:15 PM 77.0 °F - 60.8 °F 57% 30.00 in 10.0 mi ESE 5.8 mph - N/A   Clear
12:35 PM 78.8 °F - 57.2 °F 47% 30.00 in 10.0 mi East 8.1 mph - N/A   Clear
12:55 PM 78.8 °F - 57.2 °F 47% 30.00 in 10.0 mi NE 6.9 mph - N/A   Clear
1:15 PM 78.8 °F - 55.4 °F 44% 29.99 in 10.0 mi ENE 9.2 mph - N/A   Clear
1:35 PM 78.8 °F - 57.2 °F 47% 29.99 in 10.0 mi NE 6.9 mph - N/A   Clear
1:55 PM 78.8 °F - 55.4 °F 44% 29.98 in 10.0 mi ENE 8.1 mph - N/A   Clear
2:15 PM 80.6 °F 80.5 °F 55.4 °F 42% 29.98 in 10.0 mi NNE 4.6 mph - N/A   Clear
2:35 PM 80.6 °F 80.5 °F 55.4 °F 42% 29.98 in 10.0 mi ENE 5.8 mph - N/A   Clear
2:55 PM 80.6 °F 80.3 °F 53.6 °F 39% 29.97 in 10.0 mi ENE 4.6 mph - N/A   Clear
3:15 PM 80.6 °F 80.3 °F 53.6 °F 39% 29.97 in 10.0 mi Calm Calm - N/A   Clear
3:35 PM 80.6 °F 80.3 °F 53.6 °F 39% 29.97 in 10.0 mi NNE 3.5 mph - N/A   Clear
3:55 PM 80.6 °F 80.3 °F 53.6 °F 39% 29.97 in 10.0 mi East 3.5 mph - N/A   Clear
4:15 PM 82.4 °F 81.4 °F 53.6 °F 37% 29.97 in 10.0 mi East 3.5 mph - N/A   Clear
4:35 PM 80.6 °F 80.3 °F 53.6 °F 39% 29.97 in 10.0 mi Calm Calm - N/A   Clear
4:55 PM 80.6 °F 80.3 °F 53.6 °F 39% 29.97 in 10.0 mi ENE 4.6 mph - N/A   Clear
5:15 PM 80.6 °F 80.3 °F 53.6 °F 39% 29.98 in 10.0 mi East 4.6 mph - N/A   Clear
5:35 PM 78.8 °F - 53.6 °F 42% 29.98 in 10.0 mi ENE 5.8 mph - N/A   Clear
5:55 PM 78.8 °F - 55.4 °F 44% 29.98 in 10.0 mi ENE 4.6 mph - N/A   Clear
6:15 PM 75.2 °F - 57.2 °F 53% 29.99 in 10.0 mi ENE 4.6 mph - N/A   Clear
6:35 PM 71.6 °F - 59.0 °F 64% 29.99 in 10.0 mi Calm Calm - N/A   Clear
6:55 PM 68.0 °F - 59.0 °F 73% 29.99 in 10.0 mi East 3.5 mph - N/A   Clear
7:15 PM 66.2 °F - 57.2 °F 73% 29.99 in 10.0 mi Calm Calm - N/A   Clear
7:35 PM 66.2 °F - 57.2 °F 73% 29.99 in 10.0 mi Calm Calm - N/A   Clear
7:55 PM 64.4 °F - 57.2 °F 77% 30.01 in 10.0 mi Calm Calm - N/A   Clear
8:15 PM 62.6 °F - 57.2 °F 82% 30.01 in 10.0 mi East 4.6 mph - N/A   Clear
8:35 PM 60.8 °F - 55.4 °F 82% 30.02 in 10.0 mi Calm Calm - N/A   Clear
8:55 PM 60.8 °F - 57.2 °F 88% 30.02 in 10.0 mi Calm Calm - N/A   Clear
9:15 PM 60.8 °F - 55.4 °F 82% 30.03 in 10.0 mi Calm Calm - N/A   Clear
9:35 PM 59.0 °F - 53.6 °F 82% 30.03 in 10.0 mi Calm Calm - N/A   Clear
9:55 PM 60.8 °F - 55.4 °F 82% 30.04 in 10.0 mi Calm Calm - N/A   Clear
10:15 PM 57.2 °F - 53.6 °F 88% 30.04 in 9.0 mi Calm Calm - N/A   Clear
10:35 PM 55.4 °F - 53.6 °F 94% 30.04 in 10.0 mi Calm Calm - N/A   Clear
10:55 PM 57.2 °F - 55.4 °F 94% 30.04 in 10.0 mi East 3.5 mph - N/A   Clear
11:15 PM 60.8 °F - 53.6 °F 77% 30.04 in 10.0 mi East 3.5 mph - N/A   Clear
11:35 PM 59.0 °F - 53.6 °F 82% 30.05 in 10.0 mi Calm Calm - N/A   Clear
11:55 PM 55.4 °F - 51.8 °F 88% 30.05 in 10.0 mi Calm Calm - N/A   Clear